Simultaneous Nadir Overpasses (SNOs) Predictions

Prediction of SNOs between NOAA-20 and TERRA Satellite Orbit:

Table of predicted SNOs for the next 14.0 days since TLE Epoch: 6/29/2024
Index Date (NOAA-20) Time (NOAA-20) Lat,Lon (NOAA-20) SZA (NOAA-20 ) Date (TERRA) Time (TERRA) Lat,Lon (TERRA) SZA (TERRA ) Distance(km) Time Diff (sec)
1 06/30/2024 06:57:57 -72.72,-112.66 130.25 06/30/2024 06:59:07 -72.61,-111.55 130.44 39.03 70
2 06/30/2024 07:48:35 72.29, 55.51 49.28 06/30/2024 07:48:32 72.30, 55.57 49.29 2.37 3
3 06/30/2024 08:39:12 -71.96,-136.54 131.07 06/30/2024 08:38:00 -72.02,-137.28 130.96 26.06 72
4 07/02/2024 19:01:03 72.33,-112.68 49.51 07/02/2024 19:01:43 72.34,-112.70 49.52 1.86 40
5 07/02/2024 19:51:45 -72.25, 54.78 130.57 07/02/2024 19:51:07 -72.27, 54.83 130.55 2.56 38
6 07/05/2024 06:13:38 72.73, 78.39 50.18 07/05/2024 06:14:48 72.67, 79.56 50.04 39.27 70
7 07/05/2024 07:04:13 -72.30,-113.42 130.30 07/05/2024 07:04:17 -72.33,-113.41 130.27 3.15 4
8 07/05/2024 07:54:53 71.97, 54.52 49.35 07/05/2024 07:53:42 72.02, 53.73 49.46 27.86 71
9 07/07/2024 18:16:40 -72.35, 78.36 129.97 07/07/2024 18:17:26 -72.34, 78.29 129.99 2.64 46
10 07/07/2024 19:07:25 72.28,-114.19 49.96 07/07/2024 19:06:47 72.25,-114.20 49.94 2.58 38
11 07/10/2024 05:29:18 -72.91, -90.91 129.05 07/10/2024 05:30:27 -72.80, -89.20 129.27 57.35 69
12 07/10/2024 06:19:53 72.34, 77.57 50.33 07/10/2024 06:19:55 72.34, 77.63 50.32 1.88 2
13 07/10/2024 07:10:33 -72.15,-114.75 129.87 07/10/2024 07:09:20 -72.20,-114.95 129.79 8.79 73
14 07/12/2024 17:32:20 72.36, -90.58 50.69 07/12/2024 17:33:03 72.38, -90.62 50.71 3.34 43
15 07/12/2024 18:23:02 -72.27, 76.90 129.40 07/12/2024 18:22:27 -72.30, 76.89 129.36 3.28 35



Historial Predications of SNOs between NOAA-20 and TERRA
